Terug naar catalogus

BREEZE-M DEB

TANK

ActiefHEO
NORAD 38100·DEBRIS·🇷🇺 Russia

Gelanceerd Mar 25, 2012 vanaf Baikonur Cosmodrome

Loading…

Volgende Passages (komende 24 uur)

TLE

VersSource: Space-Track

Epoch: Sep 13, 2026, 22:29 UTC

1 38100U 12011C   26256.93714748  .00000642  00000-0  21153-3 0  9998
2 38100  50.6760 143.8975 5032724 256.9953  44.4109  5.50142035287269

Volg BREEZE-M DEB in realtime met AllMySat

Download on the App Store